This is the latest recevied weather packets stored in our database for station/object KY4GW. If no packets are shown the sender has not sent any weather packets the latest 10 day(s).
| Time | Temp. | Humidity | Pressure | Rain* | Wind** | Luminosity | Snow |
|---|---|---|---|---|---|---|---|
| 1777443090 | 15.56° C | 96% | 1014.8 hPa | 0 mm | - | 0 W/m² | - |
| 1777442787 | 15.56° C | 96% | 1014.8 hPa | 0 mm | - | 0 W/m² | - |
| 1777442482 | 15.56° C | 96% | 1014.8 hPa | 0 mm | - | 0 W/m² | - |
| 1777442179 | 15.56° C | 96% | 1014.8 hPa | 0 mm | - | 0 W/m² | - |
| 1777441874 | 15.56° C | 96% | 1014.8 hPa | 0 mm | - | 0 W/m² | - |
| 1777441570 | 15.56° C | 96% | 1014.8 hPa | 0 mm | - | 0 W/m² | - |
| 1777441267 | 15.56° C | 96% | 1015.1 hPa | 0 mm | - | 0 W/m² | - |
| 1777440961 | 15.56° C | 96% | 1015.1 hPa | 0 mm | - | 0 W/m² | - |
| 1777440658 | 15.56° C | 96% | 1015.5 hPa | 0 mm | - | 0 W/m² | - |
| 1777440353 | 15.56° C | 95% | 1015.5 hPa | 0 mm | - | 0 W/m² | - |
| 1777440050 | 15.56° C | 95% | 1015.5 hPa | 0 mm | - | 0 W/m² | - |
| 1777439746 | 15.56° C | 95% | 1015.1 hPa | 0 mm | - | 0 W/m² | - |
| 1777439441 | 15.56° C | 95% | 1015.1 hPa | 0 mm | - | 0 W/m² | - |
| 1777439136 | 16.11° C | 95% | 1015.1 hPa | 0 mm | - | 0 W/m² | - |
| 1777438834 | 16.11° C | 95% | 1015.8 hPa | 0 mm | - | 0 W/m² | - |
| 1777438531 | 15.56° C | 95% | 1015.8 hPa | 1.78 mm | - | 0 W/m² | - |
| 1777438227 | 16.11° C | 95% | 1015.8 hPa | 1.78 mm | - | 0 W/m² | - |
| 1777437923 | 16.11° C | 95% | 1016.2 hPa | 1.78 mm | - | 0 W/m² | - |
| 1777437316 | 16.11° C | 95% | 1016.2 hPa | 1.52 mm | - | 0 W/m² | - |
| 1777437012 | 16.11° C | 94% | 1016.6 hPa | 1.52 mm | - | 0 W/m² | - |
| 1777435799 | 16.67° C | 93% | 1016.6 hPa | 0.51 mm | - | 0 W/m² | - |
| 1777435191 | 17.22° C | 88% | 1015.5 hPa | 2.03 mm | - | 0 W/m² | - |
| 1777433675 | 17.78° C | 91% | 1015.5 hPa | 0 mm | - | 0 W/m² | - |
| 1777433377 | 17.78° C | 91% | 1015.8 hPa | 0 mm | - | 0 W/m² | - |
| 1777432459 | 18.33° C | 90% | 1015.8 hPa | 0 mm | - | 0 W/m² | - |
* Rain latest hour (hover to see other rain measurements)
** Current wind speed in m/s (hover to see current wind gust speed)